Location: Bothwell
(42.3833°S, 147.0000°E)
Time: 19:56:58
(UTC+11:00)

AO-85 - Pass Details

Date: 01 October 2022
Orbit: 513 x 757 km, 64.8° (Epoch: 24 November)

Event Time Altitude Azimuth Distance (km) Brightness Sun altitude
Rises 21:37:38 0° 290° (WNW) 2,748 ? -33.9°
Enters shadow 21:40:10 10° 274° (W) 1,901 ? -34.2°
Exits shadow 21:46:37 12° 175° (S) 1,879 ? -35.1°
Drops below altitude 10° 21:47:07 10° 170° (S) 2,030 ? -35.1°
Sets 21:49:58 0° 155° (SSE) 2,997 ? -35.5°
